www.pogodaiklimat.ru

Погода и климат >> Архив погоды >> Таиланд >> Накхонпатхом


ПОГОДА в Накхонпатхоме

  • Прогноз погоды в Накхонпатхоме
  • Монитор погоды в Накхонпатхоме

АРХИВ ПОГОДЫ в Накхонпатхоме

Время (UTC), дата Ветер
(напр.,м/с)
 
Видим.   Явления Облачность Т
(С)
Тd
(С)
f
(%)
Тe
(С)
Тes
(С)
Комфортность P
(гПа)
Po
(гПа)
Тmin
(С)
Tmax
(С)
R
(мм)
R24
(мм)
S
(см)
00 18.03 штиль 0 8000 м дымка 3/0
[Cs]
+25.6 +24.9 96 +36 +37 очень
душно
1012.0 1010.8 +25.2
03 18.03 ЮВ 2 10 км 3/0
[Cs]
+32.2 +25.6 68 +47 +60 опасность
перегрева
1013.4 1012.3
06 18.03 штиль 0 10 км 6/3 600 м
[Sc Ac As]
+35.9 +23.1 48 +46 +59 опасность
перегрева
1010.7 1009.6
09 18.03 ЮВ 4 10 км 3/0
[Cs]
+35.3 +23.4 50 +46 +50 опасность
перегрева
1007.6 1006.5
12 18.03 Ю 2 10 км 5/0
[Ac lent Cs]
+30.7 +24.1 68 +43 +43 опасность
перегрева
1008.9 1007.8 +36.3
15 18.03 ЮВ 4 10 км 8/0
[Cs]
+28.9 +25.2 80 +42 +42 опасность
перегрева
1010.8 1009.7
18 18.03 штиль 0 10 км 9/4 600 м
[Sc Ac As Cs]
+27.6 +25.3 87 +40 +40 очень
душно
1010.3 1009.2
21 18.03 ЮВ 2 10 км ясно +26.4 +24.7 90 +37 +37 очень
душно
1009.2 1008.1
00 19.03 Ю 2 10 км 3/0
[Cs]
+26.0 +24.6 92 +37 +37 очень
душно
1010.9 1009.8 +25.0
03 19.03 ЮВ 2 10 км 3/0
[Cs]
+32.0 +24.0 63 +44 +57 опасность
перегрева
1012.7 1011.6
06 19.03 Ю 2 10 км 4/3 600 м
[Cu med, cong Ci ing]
+35.6 +23.4 49 +46 +60 опасность
перегрева
1009.9 1008.8
09 19.03 ЮВ 2 10 км 3/0
[Cs]
+35.1 +22.0 47 +44 +50 опасность
перегрева
1006.9 1005.8
12 19.03 ЮВ 2 10 км 8/0
[Ac As Cs]
+30.5 +23.2 65 +41 +41 опасность
перегрева
1008.2 1007.1 +36.6
15 19.03 Ю 2 10 км 6/0
[Ac As Cs]
+28.4 +24.7 80 +40 +40 очень
душно
1010.9 1009.8
18 19.03 штиль 0 10 км 3/0
[Cs]
+26.4 +24.1 87 +37 +37 очень
душно
1010.1 1009.0
21 19.03 штиль 0 10 км ясно +25.1 +23.6 91 +34 +34 очень
душно
1008.7 1007.6
00 20.03 штиль 0 10 км ясно +23.8 +22.9 95 +32 +32 очень
душно
1010.8 1009.7 +23.0
03 20.03 ЮВ 2 10 км ясно +32.0 +23.3 60 +43 +57 опасность
перегрева
1012.4 1011.3
06 20.03 Ю 2 10 км ясно +35.4 +22.5 47 +44 +65 опасность
перегрева
1009.9 1008.8
09 20.03 ЮВ 2 10 км 3/0
[Cs]
+35.0 +23.6 52 +46 +53 опасность
перегрева
1007.1 1006.0
12 20.03 ЮВ 2 10 км 5/0
[Ac lent Cs]
+30.5 +24.8 72 +44 +44 опасность
перегрева
1008.3 1007.2 +36.5
15 20.03 штиль 0 10 км 5/0
[Cs]
+28.0 +25.9 88 +42 +42 опасность
перегрева
1010.8 1009.7
18 20.03 штиль 0 10 км 5/0
[Cs]
+27.5 +24.8 85 +39 +39 очень
душно
1010.6 1009.5
21 20.03 штиль 0 10 км ясно +26.0 +24.3 90 +36 +36 очень
душно
1008.6 1007.5
00 21.03 Ю 2 10 км 1/0
[Ci fib]
+26.0 +24.7 93 +37 +38 очень
душно
1010.3 1009.2 +25.3
03 21.03 Ю 2 10 км 3/0
[Cs]
+32.2 +22.6 57 +42 +55 опасность
перегрева
1012.3 1011.2
06 21.03 штиль 0 10 км 3/0
[Cs]
+35.9 +21.0 42 +43 +69 опасность
перегрева
1009.7 1008.6
09 21.03 В 4 10 км 1/1 600 м
[Cb cap]
+37.0 +21.0 40 +44 +48 опасность
перегрева
1006.2 1005.1
12 21.03 ЮВ 4 10 км 3/0
[Cs]
+32.2 +24.8 65 +45 +45 опасность
перегрева
1007.5 1006.4 +37.4
15 21.03 ЮВ 2 10 км 8/6 600 м
[Sc Cs]
+29.1 +25.3 80 +42 +42 опасность
перегрева
1010.2 1009.1
18 21.03 ЮВ 2 10 км ясно +27.5 +25.2 87 +40 +40 очень
душно
1009.6 1008.5
21 21.03 штиль 0 10 км 1/0
[Ci fib]
+25.9 +23.9 89 +36 +36 очень
душно
1008.1 1007.0
00 22.03 штиль 0 10 км 3/0
[Cs]
+24.1 +23.2 95 +32 +33 очень
душно
1009.4 1008.3 +22.6
03 22.03 З 2 10 км 3/0
[Cs]
+32.2 +17.1 40 +36 +49 очень
душно
1011.8 1010.7
06 22.03 З 2 10 км 3/0
[Cs]
+37.0 +13.4 24 +37 +56 опасность
солнечного
удара
1008.8 1007.7
09 22.03 В 2 10 км 3/0
[Cs]
+35.8 +13.9 27 +37 +43 душно 1005.5 1004.5
12 22.03 штиль 0 10 км ясно +32.4 +24.0 61 +44 +44 опасность
перегрева
1006.5 1005.4 +39.3
15 22.03 штиль 0 10 км ясно +28.5 +25.1 82 +41 +41 опасность
перегрева
1009.4 1008.3
18 22.03 штиль 0 10 км ясно +26.6 +24.6 89 +38 +38 очень
душно
1008.8 1007.7
21 22.03 штиль 0 7000 м дымка ясно +24.6 +23.6 94 +33 +33 очень
душно
1007.8 1006.7
00 23.03 штиль 0 10 км 3/0
[Cs]
+23.0 +20.7 87 +30 +31 очень
душно
1009.3 1008.1 +21.0
03 23.03 ЮЗ 1 10 км 3/0
[Cs]
+30.0 +26.1 80 +45 +61 опасность
перегрева
1011.5 1010.4
06 23.03 штиль 0 10 км ясно +36.5 +16.3 30 +39 +67 опасность
солнечного
удара
1008.4 1007.3
09 23.03 ЮВ 2 10 км ясно +37.5 +17.5 31 +41 +48 опасность
перегрева
1005.9 1004.9
12 23.03 ЮВ 1 10 км 3/0
[Cs]
+32.5 +22.4 55 +42 +42 опасность
перегрева
1006.5 1005.4 +38.0
15 23.03 Ю 2 10 км 3/0
[Cs]
+28.5 +24.9 81 +41 +41 опасность
перегрева
1008.8 1007.7
18 23.03 штиль 0 10 км 3/0
[Cs]
+26.5 +25.1 92 +38 +38 очень
душно
1008.3 1007.2
21 23.03 штиль 0 7000 м дымка ясно +24.5 +23.8 96 +33 +33 очень
душно
1008.0 1006.8
00 24.03 ЮВ 2 8000 м дымка 3/0
[Cs]
+25.4 +25.1 98 +36 +37 очень
душно
1009.4 1008.3 +23.9
03 24.03 Ю 4 10 км 4/4 600 м
[Cu hum]
+32.8 +26.0 68 +49 +55 опасность
перегрева
1010.8 1009.8
06 24.03 ЮВ 4 10 км 4/4 600 м
[Cu hum]
+35.7 +24.9 54 +49 +57 опасность
перегрева
1008.3 1007.2
09 24.03 Ю 2 10 км 1/1 600 м
[Cu hum Ac lent]
+35.6 +24.9 54 +49 +55 опасность
перегрева
1005.8 1004.7
12 24.03 ЮВ 4 10 км 8/0
[Ac lent Cs]
+30.5 +25.7 76 +45 +45 опасность
перегрева
1007.1 1006.0 +36.3
15 24.03 Ю 2 10 км ясно +29.1 +26.6 86 +45 +45 опасность
перегрева
1009.8 1008.7
18 24.03 ЮВ 4 10 км 6/0
[Cs]
+28.2 +26.4 90 +43 +43 опасность
перегрева
1009.6 1008.5

 

Местоположение метеостанции Накхонпатхом (Таиланд): широта 14.02 долгота 99.97 высота над уровнем моря 10 м.

В архиве по умолчанию представлена погода в Накхонпатхоме за последнюю неделю. Архивные данные за месяц целиком и за предыдущие месяцы, начиная с января 2011 года, Вы можете получить, выбрав интересующий диапазон дат из раскрывающегося списка и нажав кнопку "Ввод!".


*Определитесь, кто Вы:
робот инопланетянин человек

Внимание! Время в таблицах - всемирное. Для получения местного времени необходимо прибавить поправку, которая равна 7 ч.

Смотрите также архив погоды в соседних городах и на ближайших метеорологических станциях:

Погода в У-Тхонг Агромете (Таиланд) (33 км)
Погода в Канчанабури (Таиланд) (47 км)
Погода в Суфанбури (Таиланд) (53 км)
Погода в Самутсонгкхраме (Таиланд) (68 км)
Погода в Дон Муанг (Таиланд) (69 км)
Погода в Патхумтхани (Таиланд) (71 км)
Погода в Бангкоке (Таиланд) (71 км)
Погода в Бангкоке 2 (Таиланд) (74 км)
Погода в Бангна Агромете (Таиланд) (80 км)
Погода в Аэропорту Суварнабхуми (Таиланд) (93 км)

Пояснения к столбцам:

Ветер - указаны скорость ветра в м/с - средняя за 10 мин, порывы в срок и между сроками (в фигурных скобках) и направление, откуда дует ветер: С - северный, СВ - северо-восточный, В - восточный, ЮВ - юго-восточный, Ю - южный, ЮЗ - юго-западный, З - западный, СЗ - северо-западный.
Видимость - горизонтальная дальность видимости в метрах или километрах. При видимости от 1 до 10 км при отсутствии осадков обычно наблюдается дымка, при ухудшении видимости до 1 км и менее - туман. В сухую погоду видимость может ухудшаться дымом, пылью или мглою.
Явления - указаны атмосферные явления, наблюдавшиеся в срок или в последний час перед сроком; фигурными скобками обозначены явления, наблюдавшиеся между сроками (за 1-3 часа до срока); квадратными скобками обозначены град или гололедные отложения с указанием их диаметра в мм.
Облачность - указаны через наклонную черту общая и нижняя облачность в баллах и высота нижней границы облаков в метрах; квадратными скобками обозначены формы облаков: Ci - перистые, Cs - перисто-слоистые, Cc - перисто-кучевые, Ac - высококучевые, As - высокослоистые, Sc - слоисто-кучевые, Ns - слоисто-дождевые, Cu - кучевые, Cb - кучево-дождевые. Подробнее классификацию облаков см. в Атласе облаков (PDF).
T - Температура воздуха - температура, измеренная на высоте 2 м над землей.
Td - Температура точки росы - температура, при понижении до которой содержащийся в воздухе водяной пар достигнет насыщения.
f - Относительная влажность воздуха - влажноcть воздуха, измеренная на высоте 2 м над землей.
Te - Эффективная температура - температура, которую ощущает одетый по сезону человек в тени. Характеристика душности погоды. При расчете учитывается влияние влажности воздуха и скорости ветра на теплоощущения человека.
Tes - Эффективная температура на солнце - температура, которую ощущает человек, с поправкой на солнечный нагрев. Характеристика знойности погоды. Зависит от высоты солнца над горизонтом, облачности и скорости ветра. Ночью, в пасмурную погоду, а также при ветре 12 м/с и более поправка равна нулю.
P - Атмосферное давление - приведенное к уровню моря атмосферное давление.
Po - Атмосферное давление - измеренное на уровне метеостанции атмосферное давление.
Tmin - Минимальная температура - минимум температуры воздуха на высоте 2 м над землей.
Tmax - Максимальная температура - максимум температуры воздуха на высоте 2 м над землей.
R - Количество осадков - Количество выпавших осадков за период времени, мм. При наведении курсора мыши на число - период времени, за который выпало указанное количество осадков.
R24 - Количество осадков - Количество выпавших осадков за 24 часа, мм.
S - Снежный покров - Высота снежного покрова, см. При наведении курсора мыши на число - состояние снежного покрова и степень покрытия местности в баллах.